Date String (YYYY-MM-DD hh:mm:ss) UTC,Instrument flags,absolute air pressure of the measurement (hPa),sample flow rate (lpm),inlet stack bypass flow (lpm),air temperature of the measurement (°C),ambient temperature measured by the external sensor (°C),aerosol sample conditioner tube jacket temperature (°C),OPC LED temperature (°C),internal box temperature (°C),relative humidity of the measurement (%),span deviation,mass concentration of particles derived from Lorenz-Mie calculation of OPC scattering (μg/m³),mass concentration of particles derived from Lorenz-Mie calculation of OPC scattering (μg/m³),mass concentration of particles derived from Lorenz-Mie calculation of OPC scattering (μg/m³)
DateTimeUTC,F1_M11,P_M11,Q1_M11,Q2_M11,T1_M11,T2_M11,T3_M11,T4_M11,T5_M11,U1_M11,ZSPAN_M11,X2_M11,X0_M11,X1_M11
2023-06-03 02:00:00,SystemResetWarning,0828.1,4.99,000.00,029.7,028.3,000.0,038.0,031.4,24.6,0000.0,0001.61,0003.85,0001.01
2023-06-03 02:01:00,SystemResetWarning,0828.1,4.99,000.00,029.7,028.4,000.0,038.0,031.5,24.6,0000.0,0001.62,0003.87,0001.02
2023-06-03 02:02:00,SystemResetWarning,0828.1,5.00,000.00,029.8,028.5,000.0,038.0,031.5,24.7,0000.0,0001.54,0003.67,0001.01
2023-06-03 02:03:00,SystemResetWarning,0828.1,5.01,000.00,029.8,028.6,000.0,038.0,031.5,25.3,0000.0,0001.51,0003.79,0001.01
2023-06-03 02:04:00,SystemResetWarning,0828.1,5.01,000.00,029.8,028.6,000.0,038.1,031.6,25.1,0000.0,0001.49,0004.72,0001.01
2023-06-03 02:05:00,SystemResetWarning,0828.1,4.99,000.00,029.9,028.2,000.0,038.1,031.5,24.7,0000.0,0001.43,0005.66,0001.00
2023-06-03 02:06:00,SystemResetWarning,0828.1,4.99,000.00,029.8,026.5,000.0,038.0,031.3,24.4,0000.0,0001.42,0005.98,0000.99
2023-06-03 02:07:00,SystemResetWarning,0828.1,5.01,000.00,029.8,025.7,000.0,037.9,031.2,24.2,0000.0,0001.44,0006.18,0000.98
2023-06-03 02:08:00,SystemResetWarning,0828.0,5.01,000.00,029.7,025.8,000.0,037.9,031.1,24.3,0000.0,0001.46,0006.33,0000.99
2023-06-03 02:09:00,SystemResetWarning,0828.1,4.99,000.00,029.6,026.1,000.0,037.9,031.0,24.4,0000.0,0001.48,0005.95,0001.00
2023-06-03 02:10:00,SystemResetWarning,0828.0,4.99,000.00,029.6,026.4,000.0,037.9,031.1,24.4,0000.0,0001.47,0005.91,0001.00
2023-06-03 02:11:00,SystemResetWarning,0828.0,5.00,000.00,029.5,026.8,000.0,037.9,031.1,24.4,0000.0,0001.45,0005.89,0000.99
2023-06-03 02:12:00,SystemResetWarning,0828.1,5.01,000.00,029.5,027.1,000.0,037.9,031.2,24.2,0000.0,0001.43,0006.28,0000.97
2023-06-03 02:13:00,SystemResetWarning,0828.1,5.00,000.00,029.6,027.4,000.0,037.9,031.2,24.1,0000.0,0001.43,0007.34,0000.97
2023-06-03 02:14:00,SystemResetWarning,0828.2,4.99,000.00,029.6,027.6,000.0,037.9,031.2,24.3,0000.0,0001.41,0007.39,0000.96
2023-06-03 02:15:00,SystemResetWarning,0828.2,5.00,000.00,029.6,027.8,000.0,037.9,031.3,24.2,0000.0,0001.39,0006.57,0000.96
2023-06-03 02:16:00,SystemResetWarning,0828.2,5.00,000.00,029.6,027.9,000.0,037.9,031.3,24.1,0000.0,0001.41,0005.13,0000.97
2023-06-03 02:17:00,SystemResetWarning,0828.2,5.01,000.00,029.6,028.1,000.0,037.9,031.3,24.1,0000.0,0001.36,0004.53,0000.97
2023-06-03 02:18:00,SystemResetWarning,0828.2,5.00,000.00,029.7,028.2,000.0,038.0,031.4,24.1,0000.0,0001.27,0004.20,0000.96
2023-06-03 02:19:00,SystemResetWarning,0828.3,5.00,000.00,029.7,028.3,000.0,038.0,031.4,24.0,0000.0,0001.21,0003.85,0000.94
2023-06-03 02:20:00,SystemResetWarning,0828.3,5.00,000.00,029.7,028.4,000.0,038.0,031.4,24.2,0000.0,0001.18,0003.85,0000.92
2023-06-03 02:21:00,SystemResetWarning,0828.3,5.01,000.00,029.8,028.4,000.0,038.0,031.5,24.2,0000.0,0001.22,0003.94,0000.92
2023-06-03 02:22:00,SystemResetWarning,0828.3,4.99,000.00,029.8,028.5,000.0,038.0,031.5,24.0,0000.0,0001.25,0003.98,0000.92
2023-06-03 02:23:00,SystemResetWarning,0828.4,4.99,000.00,029.8,028.6,000.0,038.1,031.5,23.8,0000.0,0001.24,0004.23,0000.92
2023-06-03 02:24:00,SystemResetWarning,0828.4,4.99,000.00,029.8,028.4,000.0,038.1,031.5,23.8,0000.0,0001.25,0003.85,0000.91
2023-06-03 02:25:00,SystemResetWarning,0828.4,5.00,000.00,029.8,026.7,000.0,038.0,031.3,23.8,0000.0,0001.25,0003.53,0000.91
2023-06-03 02:26:00,SystemResetWarning,0828.4,5.00,000.00,029.7,025.6,000.0,037.9,031.1,23.6,0000.0,0001.26,0003.44,0000.89
2023-06-03 02:27:00,SystemResetWarning,0828.4,5.01,000.00,029.6,025.6,000.0,037.9,030.9,23.3,0000.0,0001.28,0003.54,0000.89
2023-06-03 02:28:00,SystemResetWarning,0828.4,5.01,000.00,029.5,025.9,000.0,037.9,030.9,23.6,0000.0,0001.25,0003.45,0000.87
2023-06-03 02:29:00,SystemResetWarning,0828.4,5.00,000.00,029.5,026.2,000.0,037.9,031.0,23.7,0000.0,0001.26,0003.92,0000.87
2023-06-03 02:30:00,SystemResetWarning,0828.4,4.99,000.00,029.5,026.6,000.0,037.9,031.0,23.8,0000.0,0001.31,0005.46,0000.87
2023-06-03 02:31:00,SystemResetWarning,0828.4,5.00,000.00,029.5,026.9,000.0,037.9,031.1,23.8,0000.0,0001.34,0005.49,0000.87
2023-06-03 02:32:00,SystemResetWarning,0828.4,5.01,000.00,029.5,027.2,000.0,037.9,031.1,23.9,0000.0,0001.30,0005.52,0000.86
2023-06-03 02:33:00,SystemResetWarning,0828.4,4.99,000.00,029.5,027.4,000.0,037.9,031.2,23.8,0000.0,0001.28,0005.67,0000.84
2023-06-03 02:34:00,SystemResetWarning,0828.5,4.99,000.00,029.5,027.6,000.0,037.9,031.2,23.7,0000.0,0001.38,0005.59,0000.84
2023-06-03 02:35:00,SystemResetWarning,0828.5,5.00,000.00,029.6,027.8,000.0,037.9,031.2,23.7,0000.0,0001.51,0005.57,0000.85
2023-06-03 02:36:00,SystemResetWarning,0828.5,5.01,000.00,029.6,028.0,000.0,037.9,031.3,23.8,0000.0,0001.55,0005.86,0000.85
2023-06-03 02:37:00,SystemResetWarning,0828.6,5.01,000.00,029.6,028.1,000.0,037.9,031.3,23.9,0000.0,0001.65,0007.14,0000.85
2023-06-03 02:38:00,SystemResetWarning,0828.6,5.01,000.00,029.6,028.2,000.0,037.9,031.3,23.9,0000.0,0001.65,0007.98,0000.85
2023-06-03 02:39:00,SystemResetWarning,0828.5,5.00,000.00,029.7,028.3,000.0,037.9,031.4,23.9,0000.0,0001.71,0008.35,0000.85
2023-06-03 02:40:00,SystemResetWarning,0828.6,5.00,000.00,029.7,028.3,000.0,038.0,031.4,23.8,0000.0,0001.80,0008.53,0000.86
2023-06-03 02:41:00,SystemResetWarning,0828.7,5.00,000.00,029.7,028.4,000.0,038.0,031.4,23.8,0000.0,0001.79,0007.60,0000.86
2023-06-03 02:42:00,SystemResetWarning,0828.7,5.00,000.00,029.7,028.5,000.0,038.0,031.4,23.8,0000.0,0001.76,0007.92,0000.86
2023-06-03 02:43:00,SystemResetWarning,0828.7,5.00,000.00,029.8,028.5,000.0,038.0,031.5,23.8,0000.0,0001.79,0008.44,0000.86
2023-06-03 02:44:00,SystemResetWarning,0828.7,5.00,000.00,029.8,028.6,000.0,038.0,031.5,23.7,0000.0,0001.80,0008.70,0000.87
2023-06-03 02:45:00,SystemResetWarning,0828.8,5.00,000.00,029.8,028.6,000.0,038.1,031.5,23.7,0000.0,0001.73,0008.76,0000.86
2023-06-03 02:46:00,SystemResetWarning,0828.8,5.00,000.00,029.9,028.3,000.0,038.1,031.5,23.7,0000.0,0001.68,0008.96,0000.86
2023-06-03 02:47:00,SystemResetWarning,0828.8,5.00,000.00,029.8,026.5,000.0,038.0,031.2,23.7,0000.0,0001.74,0009.40,0000.87
2023-06-03 02:48:00,SystemResetWarning,0828.8,5.01,000.00,029.7,025.5,000.0,037.9,031.0,23.9,0000.0,0001.69,0009.49,0000.87
2023-06-03 02:49:00,SystemResetWarning,0828.8,5.02,000.00,029.6,025.6,000.0,037.9,031.0,24.0,0000.0,0001.66,0008.80,0000.86
2023-06-03 02:50:00,SystemResetWarning,0828.8,5.00,000.00,029.6,025.9,000.0,037.9,031.0,24.1,0000.0,0001.63,0008.58,0000.86
2023-06-03 02:51:00,SystemResetWarning,0828.9,5.00,000.00,029.5,026.2,000.0,037.9,031.0,23.9,0000.0,0001.59,0008.54,0000.85
2023-06-03 02:52:00,SystemResetWarning,0829.0,4.99,000.00,029.5,026.6,000.0,037.9,031.0,23.8,0000.0,0001.55,0008.41,0000.85
2023-06-03 02:53:00,SystemResetWarning,0828.9,5.00,000.00,029.5,026.9,000.0,037.9,031.1,23.7,0000.0,0001.53,0008.01,0000.84
2023-06-03 02:54:00,SystemResetWarning,0828.9,5.00,000.00,029.5,027.2,000.0,037.9,031.1,23.9,0000.0,0001.51,0007.40,0000.85
2023-06-03 02:55:00,SystemResetWarning,0828.9,4.98,000.00,029.5,027.4,000.0,037.9,031.1,23.6,0000.0,0001.45,0006.77,0000.84
2023-06-03 02:56:00,SystemResetWarning,0829.0,5.00,000.00,029.5,027.6,000.0,037.9,031.2,23.4,0000.0,0001.43,0006.51,0000.84
2023-06-03 02:57:00,SystemResetWarning,0829.0,5.01,000.00,029.5,027.8,000.0,037.9,031.2,24.4,0000.0,0001.38,0005.55,0000.83
2023-06-03 02:58:00,SystemResetWarning,0829.0,5.00,000.00,029.6,027.9,000.0,037.9,031.2,24.6,0000.0,0001.25,0004.24,0000.83
2023-06-03 02:59:00,SystemResetWarning,0829.0,5.01,000.00,029.6,028.0,000.0,037.9,031.3,24.5,0000.0,0001.23,0003.15,0000.84
